Погода в Норильске

Погода в Норильске : погода сейчас, прогноз погоды и архив. Всё, что Вы хотите узнать о погоде в Норильске!

Поиск расширенной информации на нашем сайте:

Другие новости

Новости СМИ2

Главная страница сайта

Новости сайта

02.10.2013

Напоминаем, что на нашем новом сайте вы можете получить высокодетализированные прогнозы погоды по пунктам России, СНГ и мира (включающие важные для авиации метеовеличины, такие как направление и скорость ветра, видимость, явления погоды, количество и форма облачности, нижняя и верхняя граница облачности), а также ознакомиться с разнообразными материалами по авиационной метеорологии и подборкой полезных ссылок на эту тему.

Сайт Метеоцентр.Азия посвящён разработке технологий оптимизации авиаметеорологического обслуживания, включая проектирование и перспективное создание нескольких автоматизированных авиаметеорологических систем:
- система выпуска высокодетальных прогностических карт явлений погоды для нижнего воздушного пространства по России и ближнему зарубежью;
- система верификации прогнозов TAF (выпускаемых синоптиками официальных АМСГ РФ и ближнего зарубежья) и AUTOTAF (выпускаемых сайтом Метеоцентр.Азия) - выявление ошибок, онлайн-сопоставление с фактической погодой METAR, автоматическое внесение коррективов в прогнозы при резком отклонении фактической погоды от прогноза, подсчёт оправдываемости прогнозов по элементам и в целом;
- система обработки, анализа и отображения авиаметеорологической информации для применения провайдерами метеорологической информации.

Рекомендуем: Рамблер топ100 строительство и ремонт москва.

Погода в Норильске - сегодня

Время (UTC), дата Ветер
(°,м/с) 
Видим.   Явления Облачность Т
(°С)
Тd
(°С)
f(%) Тe
(°С)
Pmin
(гПа)
dP
(гПа)
Po
(мм)
O2
(г/м3)
Тmin Tmax R s Состояние
почвы
03 26.05.17 270 (З) 8-13{14}  10 км  {ливн. осадки}  8/6 600 м средняя 
[Sc|Ac trans]
-1.8 -4.9 79 -6  1001.3  2.6  745  303  -2.1         
06 26.05.17 270 (З) 4{12}  10 км  {ливн. осадки}  8/5 600 м средняя 
[Sc|Ac trans]
-0.7 -5.2 72 -3  1004  2.7  747  302           
09 26.05.17 220 (ЮЗ) 8-12{13}  10 км    9/8 600 м средняя 
[Sc|Ac trans]
-2.1 -6.4 72 -7  1006.8  2.7  749  305           
12 26.05.17 230 (ЮЗ) 5{11}  10 км    9/8 600 м средняя 
[Sc|Ac trans]
-2.2 -5.8 76 -6  1009.1  2.3  751  306    -0.6  0.0     
18 26.05.17 270 (З) 10 км  слаб. ливневой снег  10/8 300 м кучево-дожд., средняя 
[Cb cap|Ac As]
-2.8 -5.5 82 -6  1011.6  0.9  753  307           
21 26.05.17 250 (З) 4000 м  слаб. ливневой снег  10/10 300 м кучево-дожд. 
[Cb cap]
-3 -5.7 82 -5  1012.9  1.3  754  308           
00 27.05.17 260 (З) 10 км  слаб. ливневой снег  9/8 300 м кучево-дожд., средняя 
[Cb cap|Ac As]
-3 -6.1 79 -6  1014.3  1.3  755  308  -3.5    0.2  мокрый или
старый снег
50-90% 
03 27.05.17 220 (ЮЗ) 10 км  слаб. снег{ливн. осадки}  9/8 600 м средняя 
[Sc|Ac As]
-2.2 -5.8 76 -5  1015.9  1.6  756  308           
06 27.05.17 240 (ЮЗ) 10 км  {ливн. осадки, снег}  9/8 600 м средняя 
[Sc|Ac trans]
-1.4 -5.4 74 -5  1017.2  1.4  757  307           
09 27.05.17 230 (ЮЗ) 4000 м  слаб. крупа{ливн. осадки}  10/8 600 м кучево-дожд., средняя 
[Cb cap|Ac und]
-1.2 -5.2 74 -3  1018.4  1.2  758  307           
12 27.05.17 240 (ЮЗ) 20000 м  {ливн. осадки}  9/6 600 м средняя 
[Sc|Ac trans]
-1 -6 69 -2  1018.9  0.5  758  307    -0.8  0.0     
15 27.05.17 160 (Ю) 20000 м    8/6 600 м средняя 
[Sc|Ac trans]
-1.2 -7 65 -4  1019.3  0.4  758  308           
18 27.05.17 140 (ЮВ) 20000 м    4/4 2000 м средняя 
[Ac trans]
-2.8 -6.2 77 -6  1019  -1  758  309           
21 27.05.17 120 (ЮВ) 20000 м    ясно 
-4.8 -7.2 83 -8  1019.3  0.2  758  312           
00 28.05.17 130 (ЮВ) 20000 м    ясно 
-2.2 -6.5 72 -6  1019.7  0.5  759  309  -5.4      мокрый или
старый снег
50-90% 
03 28.05.17 110 (В) 7{11}  20000 м    ясно 
+0.2 -6.1 63 -4  1018.9  -0.6  758  306           
06 28.05.17 150 (ЮВ) 6{11}  20000 м    ясно 
+2.2 -4.6 61 -1  1018  -0.9  757  303           
09 28.05.17 130 (ЮВ) 8-10{12}  20000 м    ясно 
+4.3 -4.3 54 +1  1016.6  -1.3  756  301           
12 28.05.17 130 (ЮВ) 7{13}  20000 м    ясно 
+3.9 -5.2 51 +1  1015.6  -1.1  756  301    +4.4       
15 28.05.17 140 (ЮВ) 6{11}  20000 м    3/0 верхняя 
[Ci]
+2.3 -3.7 64 -1  1014.7  -0.9  755  302           
18 28.05.17 120 (ЮВ) 7{11}  20000 м    3/0 верхняя 
[Ci fib]
+0.8 -5.3 64 -3  1013.8  -0.9  754  304           
21 28.05.17 120 (ЮВ) 5{11}  20000 м    3/0 верхняя 
[Ci fib]
+0.3 -6 63 -3  1013.6  -0.3  754  304           
00 29.05.17 120 (ЮВ) 8-10{10}  20000 м    8/3 2000 м средняя, верхняя 
[Ac trans|Ci fib]
+2.4 -6.7 51 -1  1011.7  -1.8  753  301  -0.9      мокрый или
старый снег
10-40% 
12 29.05.17 140 (ЮВ) 7-11{13}  20000 м    9/5 600 м средняя, верхняя 
[Sc|Ac trans|Ci]
+6.5 -0.9 59 +4  1006.2  -1  749  295    +8.4       
15 29.05.17 130 (ЮВ) 7{13}  20000 м    9/8 600 м средняя 
[Sc|Ac trans]
+5.8 -1.2 61 +3  1005.8  -0.5  748  295           
Время (UTC), дата Ветер
(°,м/с) 
Видим.   Явления Облачность Т
(°С)
Тd
(°С)
f(%) Тe
(°С)
Pmin
(гПа)
dP
(гПа)
Po
(мм)
O2
(г/м3)
Тmin Tmax R s Состояние
почвы

Для получения пояснительной информации подведите курсор к названию столбца.

ПОГОДА в Норильске - архив

Всё, что Вы хотите узнать о погоде в Норильске - удобно и подробно!

Выберите нужную дату (начиная с 1 января 2015* года) и нажмите кнопку "Найти".
Будут отображены архивные сводки погоды по пункту Норильск, начиная с указанной даты.


Отображать данные в формате CSV (для использования в таблицах Excel)


Внимание! Наш архив погоды предназначен исключительно для личного некоммерческого использования в познавательных целях. Если Вам необходимы официальные справки о состоянии погоды (для производственных, юридических, коммерческих и т.п. целей), обращайтесь в органы Росгидромета.

*Примечание: данная дата относится к архиву по метеостанциям СССР (Россия, СНГ, Балтия).
Архив по метеостанциям Зарубежной Европы и Азии (кроме Китая) хранится 10 дней, по другим регионам земного шара (Китай, Африка, Америка, Австралия, Океания) - 1 день.

Норильск - район местоположения метеостанции


Название, широта, долгота, высота метеостанции:
Норильск (Алыкель) 69.3°ш. 87.2°д. 175 м над ур. моря [Российская Федерация]

Дополнительная информация

В oтличие oт бoльшинства пoгoдных сайтoв мы публикуем пoдрoбную метеoинфoрмацию в детальнoм прoфессиoнальнoм фoрмате.

Характеристики температуры и влажнoсти вoздуха измеряются на высoте 2 м в тени вдали oт зданий и деревьев.
Скoрoсть ветра измеряется на высoте 10 м (на урoвне рoста челoвека скoрoсть ветра ниже в 1.5-2 раза). Если метеoстанция нахoдится в гoрoде или в лесу, тo скoрoсть ветра занижена на 2-4 м/с пo сравнению с oткрытым местoм. Скoрoсть ветра над акватoриями крупных рек и oзёр, а также на вершинах хoлмoв на 2-5 м/с выше, чем в oбычных услoвиях.
Атмoсфернoе давление в разных тoчках местнoсти мoжет значительнo oтличаться oт давления на метеoстанции, в зависимoсти oт услoвий рельефа (при пoдъёме на 10 м давление пoнижается примернo на 1 мм рт.ст.).